Location: Barnston
(51.8500°N, 0.4000°E)
Time: 19:11:58
(UTC+00:00)

Cosmos 2221 - Pass Details

Date: 26 September 2023
Orbit: 584 x 608 km, 82.5° (Epoch: 08 December)

Event Time Altitude Azimuth Distance (km) Brightness Sun altitude
Exits shadow 04:19:12 21° 224° (SW) 1,352 3.8 -14.7°
Maximum altitude 04:21:42 44° 286° (WNW) 835 2.8 -14.3°
Drops below altitude 10° 04:25:51 10° 360° (N) 1,961 5.3 -13.7°
Sets 04:28:11 0° 7° (N) 2,874 6.3 -13.4°
